Temp
7 6 6 6 5 5 5 4 4 4 4 5 5 5 6 6 5 5 5 5 5 6 5 5 5 5 5 5 4 4 4 4 4 4 3 3 2 2 2 2 2 2 2
6 6 6 5 6 5 5 5 5 4 4 4 4 4 4 5 5 5 5 5 5 5 5 5 4 4 4 4 4 4 4 3 3 3 2 3 2 2 2 1 2 2 2
6 7 6 6 6 6 5 5 5 5 5 5 5 4 4 4 4 4 5 5 5 5 5 4 4 3 4 4 4 3 3 3 3 3 2 2 2 2 2 1 1 1 1
5 6 6 6 6 6 6 5 5 5 5 5 5 4 4 4 4 4 4 4 4 4 4 4 4 3 3 3 3 3 2 1 1 1 2 1 1 1 1 1 1 1 0
4 5 5 5 5 4 4 5 5 5 4 4 4 4 4 5 4 4 4 3 4 4 4 4 4 3 3 3 3 2 2 1 1 1 1 1 2 0 0 -0 0 0 -0
4 4 4 4 4 4 4 4 4 4 4 4 3 3 3 3 3 4 3 3 4 4 4 4 3 3 3 3 3 2 2 2 1 1 2 1 1 1 1 -0 0 -0 -0
3 3 3 3 4 3 3 3 3 2 2 2 2 2 2 2 2 2 3 3 3 3 3 3 3 3 3 3 3 2 2 2 2 1 1 1 1 1 1 0 0 -0 -0
3 2 3 3 3 3 3 4 3 3 2 1 1 1 1 2 2 2 2 2 2 2 2 3 3 3 2 2 3 2 2 1 1 1 1 0 1 1 -0 0 -0 -0 -1
2 2 2 2 2 2 2 2 2 2 2 1 1 1 1 1 1 1 1 1 1 2 2 2 3 3 2 1 2 2 2 1 1 1 0 1 0 0 0 0 -0 -1 -1
1 1 2 2 2 2 2 1 1 2 2 1 1 1 1 0 1 1 2 2 2 2 2 2 2 2 2 2 2 2 1 1 1 1 0 1 0 0 1 -0 -1 -1 -1
0 0 1 1 1 2 2 1 0 0 -0 -1 -1 -1 -1 -0 0 0 1 2 2 2 1 1 2 2 2 2 2 1 1 1 1 0 1 1 1 0 -0 -0 -1 -1 -2
-0 -1 -1 -0 1 1 1 1 -0 -1 -2 -2 -2 -2 -1 -1 0 1 1 1 1 1 1 1 1 1 1 1 1 1 1 -0 0 1 0 0 -0 -0 -0 -1 -2 -3 -3
0 0 -0 -0 -1 -0 -1 -3 -3 -3 -3 -3 -2 -3 -1 -1 -0 0 0 0 1 1 1 1 1 1 1 1 1 0 0 0 -0 1 1 -0 -1 -0 -2 -2 -3 -3 -3
-0 -0 -0 -0 -0 -1 -3 -4 -4 -3 -3 -4 -3 -2 -1 -1 -0 -0 0 0 1 1 1 1 1 0 0 0 0 0 1 -1 0 0 0 -1 -1 -3 -3 -3 -3 -3 -3
-2 -1 -2 -0 -1 -2 -4 -4 -4 -3 -3 -2 -1 -1 -1 -1 -0 -1 -0 -0 0 -0 -0 -0 -1 -0 -0 0 0 1 -0 -0 -1 -1 -2 -3 -3 -3 -4 -3 -4 -3 -3
-3 -3 -1 -1 -1 -2 -3 -3 -3 -3 -2 -2 -1 -1 -1 -1 -1 -1 -1 -1 -1 -1 -1 -0 -0 -1 0 -1 -0 -1 -1 -1 -1 -2 -3 -4 -4 -3 -4 -3 -3 -3 -4
-3 -1 0 -0 -1 -2 -3 -3 -3 -3 -3 -2 -2 -1 -1 -2 -2 -2 -2 -2 -1 -2 -1 -1 -1 -1 -2 -1 -1 -1 -2 -2 -3 -3 -3 -4 -4 -4 -3 -4 -5 -4 -5
-3 -1 -1 -1 -2 -3 -4 -4 -4 -4 -3 -3 -2 -2 -2 -2 -2 -2 -2 -3 -2 -2 -2 -2 -2 -2 -2 -2 -2 -2 -3 -3 -3 -4 -4 -4 -3 -3 -4 -4 -4 -5 -6
-2 -3 -2 -2 -3 -4 -4 -4 -4 -4 -4 -3 -3 -2 -2 -2 -3 -2 -2 -2 -3 -2 -2 -2 -2 -2 -2 -3 -3 -4 -4 -5 -3 -3 -3 -4 -4 -4 -4 -5 -5 -6 -7
-2 -3 -3 -3 -3 -3 -4 -3 -4 -4 -3 -3 -3 -3 -2 -2 -2 -3 -2 -3 -3 -3 -3 -4 -4 -4 -4 -4 -4 -4 -3 -3 -3 -4 -4 -4 -5 -5 -5 -5 -6 -6 -7
-0 -3 -3 -3 -3 -2 -3 -2 -2 -2 -2 -2 -2 -2 -2 -3 -2 -4 -4 -4 -5 -4 -4 -4 -4 -4 -3 -3 -3 -4 -4 -4 -4 -5 -5 -5 -5 -6 -6 -6 -7 -8 -8
-0 -1 -2 -2 -2 -2 -2 -2 -2 -3 -3 -3 -3 -3 -4 -4 -4 -4 -4 -4 -4 -4 -4 -4 -4 -3 -3 -3 -3 -3 -3 -4 -4 -5 -5 -5 -5 -6 -7 -8 -8 -9 -10
-1 -1 -1 -2 -3 -2 -2 -3 -3 -3 -3 -3 -3 -4 -4 -4 -4 -4 -4 -4 -4 -4 -3 -3 -3 -3 -3 -3 -4 -4 -4 -4 -5 -5 -6 -6 -7 -8 -9 -9 -10 -11 -11
-1 -1 -2 -2 -3 -2 -3 -3 -3 -3 -4 -4 -4 -4 -4 -4 -4 -4 -4 -4 -3 -3 -3 -3 -3 -4 -4 -4 -5 -5 -5 -5 -6 -7 -8 -9 -9 -10 -10 -11 -11 -11 -11
-2 -2 -3 -3 -3 -3 -4 -4 -3 -3 -3 -4 -4 -4 -4 -4 -4 -4 -4 -4 -4 -4 -4 -4 -4 -4 -4 -4 -5 -5 -6 -7 -8 -9 -10 -11 -11 -11 -12 -12 -12 -11 -11
-3 -2 -4 -3 -3 -3 -3 -4 -3 -3 -4 -4 -4 -4 -4 -4 -4 -4 -4 -4 -4 -4 -4 -4 -4 -5 -5 -6 -6 -7 -8 -9 -10 -11 -11 -11 -12 -12 -12 -12 -12 -11 -11
Height
3094 3094 3096 3098 3099 3099 3102 3103 3105 3108 3109 3110 3112 3114 3118 3122 3123 3126 3128 3130 3131 3133 3134 3136 3138 3140 3140 3141 3140 3141 3141 3140 3139 3138 3138 3138 3138 3137 3137 3136 3135 3134 3134
3084 3085 3085 3085 3087 3089 3090 3093 3097 3099 3100 3102 3104 3105 3109 3110 3115 3117 3119 3122 3123 3125 3127 3129 3132 3133 3134 3134 3135 3135 3135 3135 3134 3134 3133 3132 3133 3133 3132 3131 3130 3130 3129
3075 3076 3076 3078 3078 3079 3083 3083 3084 3088 3091 3092 3095 3095 3097 3099 3102 3106 3111 3115 3116 3117 3120 3122 3124 3126 3127 3128 3129 3129 3129 3130 3129 3128 3128 3126 3127 3127 3126 3126 3125 3124 3123
3070 3069 3069 3070 3071 3073 3076 3076 3077 3079 3080 3081 3082 3085 3087 3089 3094 3098 3103 3105 3108 3110 3111 3114 3116 3118 3119 3121 3121 3121 3121 3122 3121 3121 3122 3121 3121 3120 3120 3120 3119 3117 3116
3065 3064 3064 3065 3065 3065 3066 3068 3069 3070 3072 3073 3073 3075 3078 3081 3083 3087 3090 3092 3097 3100 3102 3104 3106 3109 3110 3112 3113 3113 3115 3113 3114 3113 3114 3115 3114 3113 3113 3111 3112 3110 3108
3061 3061 3061 3061 3061 3061 3060 3060 3061 3061 3062 3064 3065 3066 3068 3071 3073 3075 3078 3082 3085 3089 3092 3094 3097 3099 3101 3103 3105 3106 3106 3107 3107 3107 3106 3107 3106 3104 3103 3102 3103 3101 3100
3057 3057 3057 3056 3055 3054 3053 3054 3054 3055 3056 3056 3057 3057 3059 3060 3061 3065 3068 3070 3073 3076 3081 3085 3087 3090 3093 3095 3096 3097 3098 3099 3099 3099 3098 3099 3098 3097 3096 3094 3093 3091 3090
3052 3051 3051 3050 3050 3049 3048 3047 3047 3048 3048 3049 3050 3049 3050 3051 3052 3053 3055 3059 3063 3067 3071 3074 3077 3080 3083 3084 3086 3087 3089 3089 3090 3090 3089 3090 3087 3088 3085 3086 3083 3082 3081
3048 3046 3045 3043 3041 3040 3040 3039 3038 3038 3040 3040 3040 3041 3041 3041 3042 3043 3045 3047 3051 3055 3060 3064 3067 3070 3071 3072 3073 3076 3079 3080 3080 3080 3080 3080 3079 3079 3076 3075 3074 3073 3070
3041 3038 3036 3033 3031 3029 3028 3029 3029 3029 3029 3029 3029 3030 3031 3031 3032 3034 3035 3037 3041 3043 3048 3052 3055 3059 3061 3063 3064 3067 3068 3069 3070 3071 3070 3070 3070 3069 3066 3065 3064 3061 3059
3034 3030 3026 3022 3018 3015 3014 3014 3016 3017 3018 3018 3019 3019 3020 3021 3022 3024 3025 3026 3029 3033 3035 3040 3045 3048 3051 3054 3056 3057 3058 3060 3061 3062 3062 3062 3061 3059 3056 3054 3051 3048 3049
3027 3022 3017 3013 3010 3006 3005 3004 3003 3005 3008 3008 3009 3009 3009 3011 3012 3014 3014 3016 3019 3022 3025 3030 3034 3037 3041 3044 3046 3048 3050 3051 3052 3053 3052 3052 3050 3048 3047 3043 3041 3039 3038
3021 3016 3013 3008 3003 3000 2999 2998 2998 2998 2997 2999 3000 3001 3001 3002 3002 3004 3005 3007 3009 3012 3015 3020 3025 3029 3032 3036 3038 3040 3042 3043 3043 3043 3041 3042 3040 3038 3034 3033 3031 3030 3028
3013 3009 3007 3001 3000 2999 2996 2996 2995 2995 2994 2992 2993 2994 2993 2994 2995 2996 2998 2999 3001 3004 3008 3013 3017 3021 3024 3028 3030 3032 3031 3033 3031 3032 3032 3031 3029 3028 3027 3025 3023 3022 3018
3010 3005 3000 2999 2997 2995 2993 2994 2993 2991 2989 2987 2986 2986 2987 2989 2989 2990 2991 2992 2994 2997 3002 3006 3011 3015 3019 3021 3022 3022 3024 3024 3023 3024 3023 3022 3020 3019 3017 3016 3014 3010 3007
3005 3000 2998 2996 2995 2994 2993 2992 2989 2986 2983 2980 2979 2979 2981 2982 2984 2985 2986 2988 2991 2994 2997 3001 3005 3008 3011 3013 3016 3015 3016 3016 3017 3017 3015 3014 3014 3011 3008 3007 3002 3000 2997
3002 2997 2995 2994 2994 2992 2990 2988 2985 2983 2980 2978 2976 2976 2977 2978 2980 2980 2982 2984 2987 2985 2992 2995 2999 3001 3002 3006 3007 3008 3009 3011 3010 3009 3008 3008 3006 3004 3002 2998 2993 2990 2987
3001 2996 2994 2992 2991 2990 2989 2986 2984 2982 2980 2978 2976 2975 2974 2975 2976 2976 2979 2982 2983 2987 2988 2992 2994 2997 3000 3000 3002 3004 3005 3003 3005 3003 3002 3001 2999 2995 2991 2987 2983 2979 2975
2999 2996 2993 2991 2990 2989 2987 2984 2981 2979 2979 2978 2976 2974 2972 2974 2974 2974 2977 2977 2979 2984 2986 2988 2989 2994 2996 2997 2999 2999 2999 3000 2999 2997 2995 2992 2990 2985 2981 2976 2971 2966 2961
2998 2995 2992 2990 2990 2988 2986 2982 2979 2978 2977 2977 2976 2975 2975 2976 2975 2976 2979 2980 2980 2984 2986 2988 2992 2993 2993 2993 2994 2996 2996 2995 2993 2991 2986 2981 2977 2974 2970 2964 2960 2953 2948
2999 2994 2992 2990 2989 2987 2985 2983 2980 2978 2978 2978 2977 2977 2977 2978 2978 2978 2979 2981 2983 2985 2987 2989 2991 2992 2992 2992 2993 2993 2992 2989 2985 2982 2978 2974 2969 2964 2958 2952 2947 2943 2939
3001 2996 2993 2990 2989 2988 2986 2984 2981 2980 2979 2980 2980 2980 2980 2981 2982 2984 2986 2987 2988 2989 2990 2991 2992 2991 2990 2990 2989 2987 2985 2982 2979 2974 2969 2963 2958 2952 2947 2942 2937 2934 2931
3004 3000 2995 2991 2990 2990 2989 2987 2987 2985 2985 2985 2986 2986 2987 2987 2988 2989 2990 2990 2991 2992 2992 2991 2990 2989 2988 2987 2984 2981 2977 2974 2969 2965 2958 2951 2946 2941 2936 2931 2928 2926 2924
3005 3002 2998 2996 2995 2994 2992 2991 2991 2990 2990 2990 2990 2990 2990 2990 2990 2990 2991 2991 2991 2991 2990 2989 2988 2987 2985 2982 2978 2974 2969 2964 2958 2954 2947 2941 2935 2931 2928 2924 2923 2922 2921
3006 3004 3001 2999 2998 2997 2995 2995 2995 2994 2994 2994 2994 2993 2993 2993 2993 2993 2993 2992 2992 2991 2989 2988 2985 2982 2979 2976 2971 2966 2961 2954 2949 2942 2937 2931 2927 2924 2922 2921 2921 2919 2917
3005 3003 3002 3000 2999 2998 2997 2998 2997 2997 2997 2996 2996 2996 2996 2995 2994 2993 2993 2992 2991 2989 2987 2984 2981 2978 2973 2969 2963 2956 2950 2943 2938 2934 2930 2925 2922 2921 2921 2920 2917 2916 2914
Wind_Speed
29 36 41 47 51 53 51 47 44 44 42 43 42 41 39 37 35 32 31 31 30 28 28 26 26 25 24 24 25 25 23 23 22 20 18 18 18 17 18 20 20 21 21
28 31 35 38 42 45 48 56 55 49 48 48 46 49 47 45 40 37 34 32 33 32 31 28 28 28 28 28 27 25 24 25 23 21 20 21 20 19 20 21 22 23 24
24 30 33 33 34 38 41 44 48 52 58 59 55 55 53 53 50 46 41 38 37 36 34 32 32 31 31 30 29 25 25 26 26 23 23 23 21 22 22 22 22 25 28
15 16 17 19 24 30 40 41 41 44 45 45 50 59 58 56 53 49 44 42 40 42 39 36 35 32 32 32 28 27 28 29 27 27 28 27 25 27 27 25 26 29 31
10 11 14 15 15 14 17 24 31 41 45 43 44 46 54 61 63 58 54 52 48 42 40 37 36 33 33 35 34 33 34 30 30 28 30 32 30 30 33 29 32 34 32
14 16 18 19 18 19 20 20 20 21 26 39 44 44 43 43 47 51 54 53 53 48 44 40 38 35 34 35 35 34 31 29 28 29 35 34 32 34 38 31 37 31 33
16 17 20 22 22 19 18 19 18 17 17 19 24 32 40 43 48 47 44 44 45 48 47 44 40 37 34 33 34 37 37 33 31 32 35 34 38 39 38 35 39 39 36
20 21 22 23 26 28 29 28 27 26 24 22 23 26 28 30 29 30 42 49 46 43 43 43 42 40 36 36 35 34 35 36 37 37 35 36 36 45 34 45 40 42 39
26 28 29 31 33 34 33 35 34 32 31 29 28 29 30 31 30 28 32 32 41 46 42 44 43 44 44 40 35 34 36 39 41 41 38 42 42 43 48 44 45 43 43
27 32 36 40 43 44 44 42 41 38 36 34 34 33 34 34 34 31 31 35 32 33 43 43 45 45 45 40 38 37 38 40 42 43 39 44 42 44 48 53 52 44 46
32 33 30 28 31 34 38 46 50 43 38 35 33 32 34 36 35 33 31 34 38 34 37 41 43 43 45 44 42 40 41 41 42 41 43 43 47 46 50 55 49 46 45
29 30 30 30 29 28 29 29 32 39 37 33 33 30 34 33 33 33 33 31 33 35 34 39 41 42 42 42 42 41 41 40 42 41 41 47 47 45 53 56 44 41 38
30 27 27 22 17 22 20 19 23 28 36 33 34 28 34 31 31 31 33 31 33 34 33 37 40 40 39 39 38 39 39 37 39 38 40 48 50 50 46 41 36 38 39
28 27 23 16 16 16 11 19 23 25 23 23 26 28 31 27 25 27 28 29 30 30 31 37 37 35 35 35 36 38 40 32 42 36 43 46 45 39 35 34 35 38 39
25 25 19 13 9 8 5 9 15 21 25 25 25 27 29 24 21 23 25 25 24 26 29 31 31 32 33 31 29 36 33 35 36 38 41 35 33 30 29 33 35 38 39
24 22 16 12 8 8 9 16 20 21 23 21 16 15 18 19 19 18 19 18 20 20 25 21 24 38 30 27 29 31 31 34 38 35 26 24 27 30 32 35 35 38 40
25 19 13 9 11 10 12 17 18 13 13 9 8 8 12 14 14 16 16 15 17 13 22 18 30 22 24 27 32 30 27 28 22 21 23 25 27 29 31 34 36 39 43
20 15 10 8 10 13 12 15 13 10 8 9 8 8 9 13 15 15 15 19 19 19 15 20 20 21 23 21 22 22 16 14 20 20 23 25 28 31 33 36 40 42 44
14 11 7 8 8 9 13 14 13 11 13 9 11 14 13 11 11 7 13 10 22 18 10 12 12 14 18 13 10 10 14 18 20 22 24 27 30 33 37 41 44 45 43
16 8 6 6 6 7 9 10 8 5 6 5 6 6 2 3 5 7 5 4 11 8 8 7 7 6 4 6 9 12 16 18 21 23 27 31 35 38 41 45 46 45 42
20 10 6 3 7 6 7 7 8 6 4 4 2 1 5 7 6 7 12 13 11 9 7 4 3 5 6 8 10 14 17 20 24 27 31 35 39 41 44 46 45 43 39
17 16 6 4 2 5 7 11 14 16 18 15 15 16 18 17 16 14 12 10 8 6 5 2 3 6 9 12 16 19 22 25 28 32 36 40 42 44 44 43 41 36 26
14 12 14 16 12 7 8 14 17 18 18 17 16 15 14 13 12 9 8 7 7 4 3 6 9 11 14 17 20 24 28 32 35 38 41 44 45 43 40 37 31 20 15
12 9 9 11 10 9 11 12 12 12 12 11 11 11 11 9 9 9 8 7 7 7 9 10 12 14 18 22 26 30 34 37 41 41 43 43 40 37 32 23 16 11 10
7 7 4 4 4 6 7 6 7 7 8 8 8 8 8 7 6 5 5 6 7 9 10 13 17 21 25 29 32 36 38 41 41 41 38 36 33 28 19 11 8 8 9
7 8 1 2 4 4 6 5 5 5 5 5 6 6 5 5 6 6 7 8 9 11 15 19 22 26 30 33 37 39 39 38 34 32 29 27 20 13 10 9 9 10 11
Wind_Direction
253 250 250 250 252 252 250 254 255 259 261 261 264 264 262 260 259 257 255 252 250 247 250 250 249 248 260 264 264 267 273 273 275 278 275 276 274 281 288 284 280 278 278
254 251 249 251 250 249 251 249 249 250 253 255 257 266 267 265 264 260 255 254 249 249 249 249 247 249 258 261 263 266 269 267 272 278 275 276 280 282 287 285 280 280 281
260 258 253 251 251 251 252 252 253 252 251 255 255 254 257 261 263 263 259 256 255 253 251 249 249 251 254 257 261 263 268 266 268 273 274 276 284 278 284 284 280 283 284
273 263 254 254 255 256 251 253 255 255 255 254 250 248 252 255 258 261 263 263 261 259 256 251 251 252 250 254 256 260 257 262 265 269 276 275 277 274 279 280 278 283 282
265 261 257 254 253 261 264 257 255 253 254 256 257 253 251 253 254 255 257 259 258 257 255 254 250 252 252 254 254 257 263 261 265 270 274 272 270 276 280 278 280 278 279
274 275 273 273 278 270 263 261 259 259 254 252 256 258 258 258 256 257 256 257 256 254 253 251 250 254 252 254 252 253 256 266 265 271 272 270 272 288 271 280 279 282 278
282 277 273 269 258 255 253 251 250 251 252 253 255 257 258 260 260 258 258 257 252 250 252 252 250 254 257 255 253 255 259 261 265 268 273 271 271 272 275 274 280 274 275
289 283 277 272 267 271 276 273 258 255 259 264 268 268 266 266 267 265 257 257 258 257 255 249 250 250 251 256 254 256 259 260 265 267 271 279 272 267 275 280 263 272 276
283 280 275 273 271 268 266 267 269 267 259 254 255 259 263 268 271 269 262 258 256 255 257 258 253 248 247 248 251 253 257 260 263 266 268 265 277 275 266 270 270 269 276
297 287 279 274 268 266 265 263 261 259 258 255 256 261 265 270 271 268 267 253 252 254 249 253 254 250 256 255 255 256 258 260 262 265 270 267 275 277 266 275 274 267 273
313 306 305 299 293 283 276 267 257 253 255 257 259 261 264 267 268 270 261 257 244 247 242 242 247 248 250 249 251 255 257 260 261 267 266 271 268 278 271 271 275 274 272
321 317 313 310 302 295 294 287 272 252 253 253 256 265 272 272 266 257 255 256 248 243 239 236 236 243 245 247 250 254 260 261 262 265 274 265 282 274 283 272 267 275 284
320 320 315 303 306 307 298 292 271 250 241 240 265 272 268 265 257 256 255 255 250 242 238 234 236 242 244 245 251 257 265 266 263 268 265 277 276 272 268 276 283 285 287
327 317 316 323 304 288 299 270 266 267 282 287 279 271 263 272 265 260 257 258 252 242 238 232 237 240 242 247 256 263 262 263 257 269 267 271 268 271 278 281 284 288 294
326 316 321 316 307 319 305 275 280 283 285 285 281 273 263 274 269 262 259 258 250 234 232 233 236 242 246 252 255 253 265 262 271 271 266 270 274 276 282 287 295 293 295
329 323 317 305 301 306 293 286 290 295 296 287 270 261 267 262 261 259 251 250 242 234 227 229 240 244 241 249 253 256 256 265 266 271 271 275 283 290 297 288 294 295 297
329 329 312 291 292 299 302 301 303 309 312 304 273 253 246 243 245 241 233 231 230 215 224 234 237 257 242 241 252 257 272 267 260 270 278 288 292 287 290 294 296 300 303
325 329 316 299 293 299 314 313 312 305 353 328 326 302 251 261 237 241 240 233 217 244 230 238 240 250 251 253 261 262 257 274 272 292 292 288 292 295 298 299 299 303 303
329 326 333 292 299 320 315 308 302 262 285 286 338 332 255 291 258 249 231 241 228 227 236 232 225 238 232 222 239 263 283 295 288 285 294 297 297 298 300 302 304 306 306
351 341 321 314 1 339 346 345 333 324 326 347 343 359 144 211 227 252 110 124 136 146 156 167 189 193 227 268 313 296 281 290 295 299 303 305 306 303 303 304 305 307 309
357 336 343 28 11 356 9 343 319 289 298 303 221 163 168 204 178 105 103 102 105 101 98 89 18 321 305 297 294 298 303 307 310 308 305 303 302 303 306 307 308 307 308
11 22 4 314 349 27 19 51 73 86 86 93 93 91 95 95 99 100 100 96 87 73 51 31 317 326 324 318 318 316 313 309 307 307 305 304 304 305 306 306 306 306 302
8 23 39 59 78 97 103 89 88 89 89 89 90 92 92 90 83 82 82 77 74 66 17 352 346 340 331 322 317 316 316 315 310 307 304 304 305 305 304 304 303 298 297
2 19 50 69 84 97 91 86 85 89 91 90 86 81 78 74 70 65 55 42 25 7 360 351 341 330 324 323 321 319 316 313 308 308 306 306 305 305 305 301 294 293 295
332 335 31 74 89 99 97 88 88 89 88 83 78 78 78 74 68 57 39 22 10 0 348 339 335 332 328 324 321 317 312 309 311 311 311 310 310 308 307 303 297 304 314
283 312 315 58 100 96 88 92 95 83 78 84 88 87 78 60 40 24 11 1 353 347 342 337 334 330 325 321 317 315 314 314 316 318 319 317 318 314 311 315 321 325 324